Regional Weather Roundup
Issued by NWS

Home | Current Version | Previous Version | Graphics & Text | Print | Product List | Glossary On
Versions: 1 2 3 4 5 6 7 8 9 10 11 12 13 14 15 16 17 18 19 20 21 22 23 24 25 26 27 28 29 30 31 32 33 34 35 36 37 38 39 40 41 42 43 44 45 46 47 48 49 50
300
ASUS43 KMKX 270421
RWRWI

WISCONSIN REGIONAL WEATHER ROUNDUP
NATIONAL WEATHER SERVICE MILWAUKEE/SULLIVAN WI
1100 PM CDT SUN MAR 26 2017

NOTE: "FAIR" INDICATES FEW OR NO CLOUDS BELOW 12,000 FEET WITH NO
SIGNIFICANT WEATHER AND/OR OBSTRUCTIONS TO VISIBILITY.

WIZ001-002-006>008-014>016-023>028-270500-
NORTHWEST WISCONSIN

CITY           SKY/WX    TMP DP  RH WIND       PRES   REMARKS
SUPERIOR ARPT  CLOUDY    33  33 100 CALM      29.96S
ASHLAND        CLOUDY    33  32  96 CALM      29.95R
HAYWARD        CLOUDY    36  33  89 CALM      29.93S
SIREN          CLOUDY    35  34  96 CALM      29.93F
CUMBERLAND     CLOUDY    34  32  93 N5        29.92S WCI  30
RICE LAKE      CLOUDY    37  36  96 CALM      29.93S
CHETEK         CLOUDY    36  36  99 CALM      29.92S
LADYSMITH      CLOUDY    36  35  93 N8        29.93R WCI  30
EAU CLAIRE     CLOUDY    40  40 100 CALM      29.91R FOG
MENOMONIE      CLOUDY    40  39  93 NW5       29.93R
NEW RICHMOND   CLOUDY    37  37 100 NW3       29.94R
OSCEOLA        CLOUDY    37  37 100 CALM      29.97R
$$

WIZ003>005-009-010-017-018-270500-
NORTH CENTRAL WISCONSIN

CITY           SKY/WX    TMP DP  RH WIND       PRES   REMARKS
MANITOWISH WTR CLOUDY    32  32 100 N3        29.88F
ARBOR VITAE    CLOUDY    34  33  96 N7        29.87S FOG     WCI  28
WOODRUFF       CLOUDY    34  33  96 N7        29.87S FOG     WCI  28
RHINELANDER    CLOUDY    37  37 100 CALM      29.86F
EAGLE RIVER    CLOUDY    34  34 100 N5        29.86S WCI  30
LAND O LAKES   CLOUDY    33  33 100 N3        29.88F
PHILLIPS       CLOUDY    32  32 100 N3        29.88F
TOMAHAWK       CLOUDY    36  35  96 N3        29.87F FOG
MEDFORD        CLOUDY    37  36  98 NW5       29.88R WCI  33
MERRILL        CLOUDY    37  37 100 CALM      29.87S
$$

WIZ029-030-035-036-043>047-270500-
CENTRAL WISCONSIN

CITY           SKY/WX    TMP DP  RH WIND       PRES   REMARKS
WAUSAU         CLOUDY    38  38 100 CALM      29.86S
MOSINEE        CLOUDY    37  37 100 CALM      29.88R FOG
MARSHFIELD     FOG       38  37  97 W3        29.88R VSB 3/4
STEVENS POINT  DRIZZLE   36  36 100 CALM      29.89R
WAUPACA        DRIZZLE   40  38  96 CALM      29.89R
WAUTOMA        CLOUDY    39  38  96 SW5       29.91R
WISC RAPIDS    CLOUDY    39  39 100 W3        29.90R FOG
CAMP DOUGLAS   CLOUDY    39  39 100 W5        29.91R
$$

WIZ011>013-019>022-031-037>040-048>050-270500-
NORTHEAST WISCONSIN

CITY           SKY/WX    TMP DP  RH WIND       PRES   REMARKS
ANTIGO         DRIZZLE   35  35 100 CALM      29.86S
SHAWANO        DRIZZLE   38  37  93 CALM      29.88F
OCONTO         CLOUDY    35  35  99 CALM      29.88S
STURGEON BAY   MIX PCPN  34  33  96 N12       29.88S FOG     WCI  25
GREEN BAY      CLOUDY    37  37 100 CALM      29.88S FOG
MANITOWOC      CLOUDY    37  36  93 NW7       29.88S WCI  32
APPLETON       DRIZZLE   37  37 100 N5        29.86F WCI  34
CLINTONVILLE   DRIZZLE   36  36 100 CALM      29.87F
OSHKOSH        CLOUDY    39  37  92 NW5       29.88R
$$

WIZ032>034-041-042-053>061-270500-
SOUTHWEST WISCONSIN

CITY           SKY/WX    TMP DP  RH WIND       PRES   REMARKS
LA CROSSE      CLOUDY    42  40  92 CALM      29.93R
SPARTA         CLOUDY    39  39 100 CALM      29.93R FOG
VIROQUA        CLOUDY    39  39 100 CALM      29.92R VSB 1/4
BOSCOBEL       CLOUDY    43  42  97 CALM      29.92F FOG
PRAIRIE DU CHI CLOUDY    42  40  91 N3        29.92F
PLATTEVILLE    CLOUDY    44  44 100 N5        29.90F
$$

WIZ056-057-062-063-064-067-068-270500-
SOUTH CENTRAL WISCONSIN

CITY           SKY/WX    TMP DP  RH WIND       PRES   REMARKS
REEDSBURG      CLOUDY    38  38 100 W5        29.92R FOG     WCI  35
BARABOO/DELLS  CLOUDY    39  38  97 CALM      29.90S FOG
LONE ROCK      CLOUDY    43  41  93 W3        29.92F
MINERAL POINT  FOG       43  43 100 NW5       29.91S VSB 1/2
MADISON        CLOUDY    40  39  97 W3        29.90S
MIDDLETON      CLOUDY    42  42 100 W5        29.91R
WATERTOWN      DRIZZLE   40  40 100 NW7       29.89S
MONROE         DRIZZLE   43  43 100 NW3       29.90S
JANESVILLE     CLOUDY    45  45 100 NW8       29.90R FOG
$$

WIZ051-052-058>065-066-070>072-270500-
SOUTHEAST WISCONSIN

CITY           SKY/WX    TMP DP  RH WIND       PRES   REMARKS
MILWAUKEE      CLOUDY    42  40  92 CALM      29.88R FOG
WAUKESHA       CLOUDY    41  41 100 W8        29.89R
MILWAUKEE/TIMM LGT RAIN  41  39  93 CALM      29.88R
RACINE         CLOUDY    42  41  96 CALM      29.89R
KENOSHA        LGT RAIN  47  45  93 CALM      29.88R VSB 3/4
FOND DU LAC    LGT RAIN  39  37  92 CALM      29.89R FOG
SHEBOYGAN      CLOUDY    40  38  93 NW6       29.87R
WEST BEND      RAIN      41  41 100 W7        29.88R
JUNEAU         DRIZZLE   39  38  98 CALM      29.90S
$$

LSZ147-162-270500-
LAKE SUPERIOR

STATION/POSITION TIME  TEMP    WIND        PRES    WAVE
                       AIR SEA DIR/SP/G            HT/PER
                 (UTC) (F)     (DEG/KT/KT) (MB)    (FT/S)
DEVILS ISLAND    0400   33      30/  4/  4 1014.8F
PORT WING        0340   34     330/  3/  4 1014.6S
SAXON HARBOR     0340   33     310/  3/  3 1013.9S
$$

LMZ867-665-643>646-270500-
LAKE MICHIGAN

STATION/POSITION TIME  TEMP    WIND        PRES    WAVE
                       AIR SEA DIR/SP/G            HT/PER
                 (UTC) (F)     (DEG/KT/KT) (MB)    (FT/S)
CHAMBERS ISLAND  0340   33     350/  5/  6 1011.5S
NORTHPORT PIER   0340   33     340/  7/  8 1011.5F
KEWAUNEE LAKESHO 0354   35     340/  3/  7 1011.1F
SHEBOYGAN LAKESH 0400   41     320/  4/  4 1011.7R
PORT WASHINGTON  0340   40     210/  3/  4 1012.5S
MILWAUKEE LAKESH 0400   39      30/  4/  4   N/A
KENOSHA   LAKESH 0400   40        CALM     1012.2
$$

TC  - TEMPERATURE IN CELSIUS
VSB - VISIBILITY IN STATUTE MILES
WCI - WIND CHILL INDEX
HX  - HEAT INDEX





USA.gov is the U.S. government's official web portal to all federal, state and local government web resources and services.